Temperature
15 14 15 15 15 15 15 15 15 15 15 15 14 14 14 14 14 14 14 14 14 14 14 14 14 14 14 14 14 14 13 13 13 13 13 13 13 12 12 12 12 12 12
14 14 14 14 14 14 14 14 14 14 14 14 14 14 14 14 14 14 14 14 14 14 14 14 14 14 14 14 13 13 13 13 13 13 13 13 13 12 12 12 12 12 12
14 14 14 14 14 14 14 14 14 14 14 14 14 14 14 14 14 14 14 14 14 14 14 14 14 14 13 13 13 13 13 13 13 13 13 13 13 12 12 12 12 12 12
14 14 14 14 14 14 14 14 14 14 14 14 14 14 14 14 14 14 13 14 14 14 13 13 13 13 13 13 13 13 13 13 13 13 13 13 12 12 12 12 12 12 12
13 13 14 14 14 14 14 14 13 13 13 14 14 14 14 13 13 13 13 13 13 13 13 13 13 13 13 13 13 13 13 13 12 12 12 12 12 12 12 12 12 11 11
13 13 13 13 13 13 13 13 13 13 13 13 13 13 13 13 13 13 13 13 13 13 13 13 13 13 13 13 13 12 12 12 12 12 12 12 12 12 12 11 11 11 11
12 12 12 13 13 13 13 13 13 13 13 13 13 12 13 13 13 13 13 13 13 13 13 12 13 13 12 12 12 12 12 12 12 12 12 12 12 11 11 11 11 11 11
12 12 12 12 12 12 12 12 12 12 12 12 12 12 12 12 12 12 12 12 12 12 12 12 12 12 12 12 12 12 12 12 12 11 11 11 11 11 11 11 11 11 10
11 12 12 12 12 12 12 12 12 12 12 12 12 11 11 11 12 12 12 12 12 12 12 12 12 12 12 12 12 11 11 11 11 11 11 11 11 11 11 10 10 10 10
11 11 11 11 11 11 11 11 12 12 11 11 11 11 11 11 11 11 11 12 12 11 11 11 11 11 11 11 11 11 11 11 11 11 10 10 10 10 10 10 10 10 10
10 10 10 10 11 11 11 11 11 11 11 11 11 11 11 10 10 10 10 11 11 11 11 11 11 11 11 11 11 11 11 10 10 10 10 10 9 9 9 9 9 9 9
10 10 10 10 10 10 10 10 10 11 11 11 10 10 10 10 10 10 10 10 10 11 11 10 10 10 10 10 10 10 10 10 9 9 9 9 9 9 9 9 9 9 9
9 9 9 9 9 10 10 10 10 10 10 10 10 10 10 9 9 9 9 9 9 9 9 9 9 9 9 9 9 9 9 9 9 9 9 9 9 9 8 8 8 8 8
8 8 8 8 9 9 9 9 9 9 9 9 9 9 9 9 9 8 8 8 8 8 8 8 9 9 9 8 8 8 8 8 8 8 8 8 8 8 8 7 7 7 7
8 8 8 8 8 8 8 8 8 8 8 8 8 8 8 8 8 8 8 8 7 7 7 7 8 8 8 8 8 8 8 8 7 8 8 8 7 7 7 7 7 7 7
7 7 7 7 7 8 8 8 8 7 8 8 7 7 7 7 7 7 7 7 7 6 6 6 6 7 7 7 7 7 7 7 7 7 7 7 7 7 6 6 6 6 6
7 7 7 7 7 7 7 7 7 7 7 7 7 7 7 7 7 7 6 6 6 6 5 6 6 6 6 6 6 6 6 6 6 6 6 6 6 6 6 6 6 6 6
6 6 6 6 6 6 6 6 6 6 6 6 6 6 6 6 6 6 6 5 5 5 5 5 5 5 5 5 5 5 5 5 5 5 5 5 5 5 5 5 5 5 5
6 6 6 6 6 6 6 6 6 5 5 5 5 5 5 5 5 5 5 5 4 4 4 4 4 4 4 4 4 4 4 5 5 5 5 5 5 5 5 5 5 5 5
5 5 5 5 5 5 5 5 5 5 5 5 5 5 4 4 4 4 4 4 3 3 3 3 3 3 3 3 3 3 3 4 4 4 4 4 4 4 4 4 4 4 4
5 5 5 5 5 5 4 4 4 4 4 4 4 4 4 4 3 3 3 3 3 2 2 2 2 2 2 2 2 2 2 2 3 3 3 3 3 3 3 3 3 4 4
4 4 4 4 4 4 4 4 3 3 3 3 3 3 3 3 3 2 2 2 2 2 1 1 1 1 1 1 1 1 1 1 1 1 1 2 2 2 3 3 3 3 3
4 4 4 3 3 3 3 3 3 3 3 3 3 2 2 2 2 2 2 2 2 1 1 1 0 1 0 1 0 0 0 0 0 0 0 1 1 1 2 2 2 2 2
3 3 3 3 3 3 3 3 3 3 2 2 2 2 2 2 2 1 1 1 1 1 1 0 0 0 -0 -0 -0 -0 -0 -0 0 0 -0 -0 0 1 1 1 2 2 2
3 3 3 3 3 2 2 2 2 2 2 2 2 1 1 1 1 0 0 0 1 1 0 0 -0 -0 -0 -0 -1 -1 -1 -1 -1 -0 -1 -1 -1 -0 0 1 1 1 1
2 2 2 2 2 2 2 2 1 1 1 1 1 1 1 0 0 -0 -0 -0 -0 -0 -0 -0 -0 -0 -1 -1 -1 -1 -2 -2 -2 -2 -1 -2 -1 -2 -1 -1 -0 0 0
Wind_Speed
5 5 6 7 8 9 8 7 7 7 7 8 9 8 7 8 9 9 10 12 13 12 11 10 10 9 9 8 8 7 7 7 7 7 7 7 6 6 6 6 6 5 5
6 6 6 6 8 9 10 9 8 7 6 6 6 7 8 8 9 9 10 11 13 13 12 11 10 10 10 9 8 8 8 8 8 8 8 7 7 8 8 8 7 7 7
8 7 6 6 7 10 10 8 7 6 5 5 6 6 6 7 8 9 10 10 11 13 13 12 11 10 10 10 10 9 9 8 8 8 9 9 9 9 9 9 9 9 9
9 7 6 7 8 9 7 6 6 6 6 5 5 5 5 5 7 8 8 9 10 9 11 12 11 11 10 10 10 10 10 9 9 9 9 9 10 10 11 11 11 11 10
9 7 6 6 8 6 6 7 7 6 6 6 6 5 5 5 5 6 6 8 9 10 10 11 12 12 11 11 11 11 10 10 9 9 10 10 10 11 12 12 12 11 11
8 7 6 7 7 6 6 6 7 6 5 5 5 5 4 5 4 5 6 6 8 9 10 9 9 10 12 12 12 11 11 11 10 10 10 10 11 12 13 13 13 13 13
6 5 5 5 6 7 7 7 5 6 5 3 2 2 2 3 4 4 4 4 5 7 8 8 8 8 9 11 11 11 11 11 11 11 11 11 12 12 13 13 14 13 13
4 4 5 5 6 6 7 7 5 4 3 4 3 2 2 3 4 5 4 5 5 4 4 7 7 8 9 8 10 12 12 12 12 12 12 13 13 14 14 14 14 14 14
2 3 3 4 5 5 6 6 7 7 5 5 4 4 3 4 3 2 4 4 4 4 4 4 7 9 9 9 9 10 12 12 13 14 14 15 15 15 15 15 15 14 15
2 1 1 2 3 3 4 4 5 5 5 5 3 2 2 3 3 2 2 3 4 5 5 4 5 7 8 8 8 9 11 12 14 15 15 16 16 17 17 16 16 15 15
2 2 1 1 2 2 2 2 3 3 4 5 4 2 2 2 2 3 3 3 3 4 5 5 5 5 7 7 7 9 11 12 14 15 16 17 18 18 17 17 16 16 16
1 1 1 0 1 2 2 2 3 3 3 3 3 3 3 2 3 3 4 3 4 4 4 5 5 4 5 6 8 9 11 12 13 15 17 18 19 18 18 17 17 17 17
2 2 1 0 1 2 2 2 2 2 2 3 3 3 2 2 2 2 3 3 4 3 3 3 4 4 5 6 8 11 12 13 15 16 18 19 19 18 18 18 19 19 18
1 1 1 0 0 1 1 2 2 2 2 2 2 2 2 2 1 2 3 3 4 4 4 4 3 4 4 6 9 11 11 14 16 17 19 20 19 18 18 19 19 19 19
1 1 1 0 1 1 1 2 1 1 2 2 2 2 2 2 1 1 2 2 4 5 5 4 3 2 4 6 9 9 10 13 16 17 18 18 18 17 17 17 17 18 18
0 1 1 1 1 1 1 2 1 1 1 1 1 2 2 2 2 2 2 2 3 4 5 3 3 3 4 6 8 9 10 13 15 16 17 18 17 16 16 16 17 17 17
1 1 1 1 2 1 1 1 1 1 1 1 2 2 2 2 2 2 2 2 3 3 6 5 3 3 4 5 6 7 9 10 11 14 16 16 16 16 16 16 16 17 17
2 1 1 2 2 2 1 1 0 0 0 1 2 2 3 2 3 2 2 3 3 4 5 7 4 3 5 5 5 6 6 8 9 13 15 15 16 16 16 16 16 17 17
2 2 2 1 1 1 1 1 0 0 1 2 2 2 3 2 3 3 3 3 3 4 4 5 6 4 4 4 5 6 6 6 8 11 13 14 14 15 15 16 16 15 15
2 2 2 1 1 1 1 1 1 1 1 1 2 2 2 3 4 4 4 4 4 4 4 5 5 5 4 4 4 5 7 6 7 7 9 11 12 14 15 15 15 14 14
2 1 2 2 2 1 1 1 1 1 1 2 2 2 2 3 4 4 4 4 4 4 4 5 6 5 5 4 5 5 7 7 7 5 5 6 7 7 9 11 12 13 13
2 2 2 2 2 2 3 3 1 1 1 1 2 2 3 3 5 6 6 6 5 5 5 6 6 7 7 6 5 6 6 7 6 3 5 7 5 7 7 7 11 13 13
2 3 2 2 2 3 4 4 4 2 1 1 2 2 3 3 5 4 5 6 6 8 8 6 7 7 7 6 6 7 7 7 8 5 5 8 5 7 7 8 13 13 13
2 2 2 2 3 4 5 5 5 3 2 2 2 2 3 4 4 5 4 4 4 4 6 4 5 6 6 6 6 7 8 8 7 5 4 6 5 6 7 7 12 13 12
2 2 2 2 3 4 6 6 5 2 2 2 2 3 3 4 7 7 4 4 4 4 6 7 8 8 9 9 7 5 5 5 7 5 3 4 4 5 5 6 8 10 10
1 2 3 3 3 3 5 6 6 2 2 2 3 3 5 6 8 7 3 3 5 5 5 6 6 7 7 7 8 5 5 5 5 5 2 3 4 4 4 4 4 5 6
Wind_Direction
205 202 199 197 198 197 195 197 202 204 208 215 219 218 221 224 223 220 221 218 215 213 214 218 221 223 228 234 239 245 248 252 255 259 261 258 257 258 261 263 269 279 286
203 201 203 199 200 202 202 201 203 204 210 212 220 220 221 221 221 217 216 217 218 218 217 222 224 228 231 235 242 247 251 255 259 261 261 263 258 257 261 264 264 268 275
207 202 202 204 205 205 203 203 204 202 207 211 220 223 221 222 221 218 216 215 219 222 220 221 226 230 234 241 246 249 251 255 260 261 259 262 260 259 261 263 264 267 271
215 206 205 207 205 202 198 200 201 201 209 211 218 226 223 220 223 220 215 214 212 218 223 225 228 231 236 243 249 251 253 255 259 262 263 264 261 261 262 262 264 265 266
219 210 212 210 201 199 202 204 202 200 206 212 219 224 224 222 220 217 213 214 212 213 218 226 228 233 237 243 249 253 255 256 258 261 263 263 263 263 265 264 264 266 266
227 214 217 212 201 200 205 204 203 204 204 208 218 226 229 227 219 214 215 212 211 212 216 221 226 237 242 244 250 257 260 261 260 261 262 264 266 267 267 268 266 267 266
233 220 221 213 205 204 204 201 200 202 207 183 175 233 261 242 228 222 214 210 214 216 216 223 225 229 241 243 249 258 262 265 267 266 265 266 269 272 273 273 270 268 267
240 230 217 212 206 206 203 199 195 198 200 181 169 167 237 269 249 231 219 219 222 212 218 229 227 229 236 240 247 253 258 263 267 269 269 269 269 272 274 276 272 269 268
269 247 230 215 206 204 206 202 197 199 200 196 180 173 181 220 244 250 225 221 218 217 225 237 238 239 238 238 245 250 255 260 265 267 269 269 270 272 272 274 271 273 271
323 311 252 218 210 206 203 203 200 201 190 195 201 205 192 170 192 245 265 232 225 225 230 240 245 244 239 239 246 253 258 260 265 271 273 272 271 271 271 272 271 274 274
339 338 331 198 207 207 195 191 200 193 196 194 191 192 207 212 204 205 244 252 249 236 233 236 235 240 241 242 251 261 267 266 268 273 275 275 273 272 270 269 272 273 274
313 336 19 132 202 196 192 190 188 184 195 191 190 192 190 193 204 211 231 242 249 248 241 235 231 237 243 250 258 268 267 266 269 273 276 276 276 274 270 270 272 272 271
314 326 325 304 241 197 182 174 171 176 190 191 197 214 222 226 211 211 227 245 251 259 252 240 233 240 252 260 268 269 266 268 271 274 276 277 276 273 271 270 272 271 270
285 296 289 249 179 154 159 158 168 181 177 193 203 210 225 242 236 226 216 227 257 259 251 252 252 240 266 272 274 272 273 273 272 273 274 275 274 270 269 269 269 269 269
307 318 304 45 73 116 137 146 153 174 165 184 204 210 223 240 246 249 239 221 225 252 258 247 247 268 286 279 279 280 278 278 274 272 272 273 274 273 271 269 268 268 267
10 24 25 43 49 61 91 121 137 141 146 195 208 217 233 244 245 246 243 247 233 239 255 251 252 276 286 295 289 283 277 281 277 275 273 272 271 271 271 270 270 269 267
46 48 35 44 41 41 61 92 113 121 172 232 239 231 246 251 247 249 246 246 246 242 258 269 257 283 276 280 291 286 284 279 279 279 278 275 273 271 270 270 269 267 267
37 38 42 53 41 23 38 62 38 47 209 254 261 250 256 265 260 258 252 250 252 251 254 275 280 275 272 279 281 284 290 291 287 287 286 283 279 274 272 271 269 267 266
36 37 51 59 43 23 22 27 9 322 279 260 258 256 262 259 265 268 260 256 261 272 261 270 280 279 276 287 291 289 287 282 291 292 292 288 283 279 277 274 272 271 268
35 30 35 48 47 34 23 1 356 326 299 288 287 282 280 261 259 264 264 260 263 268 270 269 275 282 282 289 288 291 296 289 290 295 289 289 287 284 281 277 274 270 266
34 30 45 36 27 23 13 13 349 325 299 304 318 311 303 300 295 281 276 265 263 263 269 271 276 282 281 290 286 285 289 296 291 278 286 289 289 285 281 277 276 272 267
27 36 40 31 21 9 20 23 14 338 314 307 308 317 320 316 314 312 305 300 289 275 272 271 273 277 278 278 281 286 287 297 293 281 289 291 288 283 281 274 277 275 269
42 40 34 38 30 15 22 19 17 23 0 329 311 311 319 321 321 302 305 312 304 300 293 279 275 277 284 286 287 287 282 279 277 279 286 285 283 279 281 281 284 277 269
51 45 34 28 31 22 28 34 33 42 32 358 332 315 305 305 309 309 304 306 305 309 302 290 274 279 284 288 279 276 278 282 282 272 254 275 282 278 286 282 283 277 271
43 37 36 42 39 15 17 23 29 40 26 1 342 336 325 311 321 322 313 303 305 303 311 309 304 304 304 302 301 296 292 295 294 286 255 265 278 288 286 281 283 280 276
51 46 40 34 33 17 10 15 19 34 18 355 350 342 337 334 330 327 314 301 298 301 311 314 313 313 308 304 306 286 276 279 290 288 271 274 283 299 296 283 286 291 284
Height
1519 1520 1522 1523 1525 1526 1527 1529 1530 1531 1532 1533 1534 1535 1535 1536 1537 1537 1538 1538 1538 1538 1538 1538 1538 1538 1537 1537 1537 1536 1536 1535 1535 1534 1534 1533 1532 1531 1531 1530 1529 1527 1526
1515 1516 1517 1519 1521 1522 1524 1525 1527 1528 1529 1530 1531 1532 1532 1533 1534 1535 1535 1536 1536 1536 1536 1536 1536 1535 1535 1535 1535 1534 1534 1533 1533 1532 1531 1531 1530 1529 1528 1527 1526 1525 1524
1510 1512 1513 1515 1517 1518 1520 1522 1523 1524 1525 1526 1527 1528 1529 1530 1531 1531 1532 1533 1533 1533 1533 1533 1533 1533 1533 1532 1532 1532 1531 1531 1530 1530 1529 1528 1527 1527 1526 1525 1524 1522 1521
1506 1507 1508 1510 1512 1514 1515 1517 1519 1520 1521 1522 1523 1524 1525 1526 1527 1528 1529 1529 1529 1530 1530 1530 1530 1530 1530 1529 1529 1529 1528 1528 1527 1527 1526 1525 1524 1523 1523 1521 1520 1519 1518
1501 1502 1503 1505 1507 1509 1510 1512 1514 1515 1517 1518 1519 1520 1521 1522 1523 1524 1524 1525 1526 1526 1527 1527 1527 1527 1526 1526 1526 1526 1525 1525 1524 1523 1523 1522 1521 1520 1519 1518 1517 1516 1514
1495 1497 1498 1500 1502 1503 1505 1507 1509 1510 1512 1513 1515 1516 1517 1518 1519 1519 1520 1521 1522 1522 1522 1523 1523 1523 1523 1522 1522 1522 1521 1521 1520 1520 1519 1518 1517 1516 1515 1514 1513 1512 1510
1490 1492 1492 1494 1496 1497 1499 1501 1503 1505 1507 1509 1511 1511 1512 1513 1514 1514 1515 1516 1517 1518 1518 1518 1518 1518 1518 1518 1518 1517 1517 1517 1516 1515 1514 1514 1513 1512 1511 1510 1508 1507 1506
1485 1487 1488 1489 1490 1492 1493 1496 1498 1500 1501 1504 1505 1506 1507 1508 1508 1509 1510 1511 1512 1512 1513 1513 1513 1513 1513 1513 1512 1512 1512 1512 1511 1510 1509 1509 1508 1507 1506 1505 1504 1502 1501
1481 1482 1483 1484 1485 1487 1488 1490 1492 1494 1496 1498 1499 1501 1501 1501 1502 1503 1504 1505 1506 1507 1507 1508 1508 1508 1508 1508 1507 1507 1507 1506 1506 1505 1504 1503 1502 1501 1500 1499 1498 1497 1496
1476 1477 1478 1479 1480 1482 1483 1484 1487 1489 1491 1492 1494 1495 1497 1497 1498 1497 1498 1499 1501 1501 1502 1502 1502 1502 1502 1502 1502 1502 1501 1500 1500 1499 1498 1497 1496 1495 1494 1493 1492 1491 1490
1472 1472 1473 1474 1475 1477 1478 1480 1482 1484 1485 1487 1488 1490 1491 1492 1492 1493 1492 1493 1494 1495 1496 1496 1496 1496 1496 1496 1496 1495 1495 1494 1493 1492 1491 1490 1489 1488 1487 1487 1486 1485 1483
1468 1468 1469 1469 1470 1472 1473 1475 1477 1478 1480 1481 1483 1484 1485 1486 1487 1488 1487 1487 1487 1488 1489 1490 1490 1490 1490 1489 1489 1488 1488 1487 1486 1485 1484 1483 1482 1481 1480 1479 1478 1477 1476
1464 1464 1465 1465 1466 1467 1469 1470 1472 1473 1474 1476 1477 1479 1480 1481 1482 1482 1483 1482 1482 1482 1482 1483 1483 1483 1483 1482 1482 1482 1481 1480 1479 1478 1477 1476 1475 1474 1473 1472 1471 1470 1469
1460 1461 1461 1461 1462 1463 1464 1466 1467 1468 1470 1471 1472 1474 1474 1475 1476 1477 1477 1478 1476 1476 1476 1476 1476 1476 1476 1475 1475 1474 1473 1472 1471 1470 1469 1468 1467 1466 1465 1464 1463 1463 1461
1458 1458 1458 1458 1459 1459 1460 1461 1462 1464 1465 1466 1467 1469 1469 1470 1471 1471 1472 1473 1473 1470 1469 1469 1470 1470 1469 1468 1467 1466 1466 1465 1464 1462 1461 1460 1459 1458 1457 1456 1455 1455 1454
1455 1455 1455 1455 1456 1456 1457 1458 1459 1460 1461 1462 1463 1464 1464 1465 1466 1466 1466 1467 1466 1466 1464 1463 1463 1463 1462 1462 1461 1459 1458 1457 1456 1455 1453 1452 1451 1450 1449 1448 1447 1447 1446
1452 1452 1452 1453 1453 1454 1454 1455 1455 1456 1457 1457 1458 1458 1459 1460 1460 1460 1460 1460 1461 1460 1458 1456 1457 1456 1455 1454 1453 1452 1451 1449 1448 1447 1446 1444 1443 1442 1441 1440 1439 1439 1438
1451 1451 1450 1450 1450 1451 1451 1451 1451 1452 1453 1453 1454 1454 1454 1455 1455 1455 1454 1454 1454 1454 1453 1450 1449 1449 1448 1447 1446 1445 1443 1442 1440 1439 1438 1436 1435 1434 1433 1432 1431 1430 1429
1449 1449 1449 1448 1448 1448 1448 1448 1449 1449 1449 1449 1449 1449 1449 1449 1449 1449 1449 1449 1449 1448 1447 1445 1443 1442 1441 1441 1439 1437 1436 1434 1433 1431 1430 1428 1427 1426 1425 1424 1423 1422 1421
1447 1447 1446 1446 1446 1446 1445 1445 1445 1446 1446 1445 1445 1445 1444 1444 1444 1444 1444 1443 1443 1442 1441 1439 1437 1436 1435 1434 1433 1430 1428 1427 1425 1424 1422 1421 1420 1419 1417 1416 1415 1414 1414
1445 1445 1444 1444 1443 1443 1443 1442 1442 1442 1442 1442 1441 1441 1440 1440 1440 1440 1439 1438 1437 1436 1435 1433 1432 1430 1429 1428 1426 1424 1422 1419 1418 1417 1415 1414 1413 1411 1410 1409 1408 1407 1406
1444 1444 1443 1442 1442 1441 1440 1440 1440 1439 1439 1438 1437 1437 1436 1436 1435 1435 1434 1433 1432 1431 1429 1428 1427 1425 1424 1422 1421 1419 1417 1414 1411 1411 1409 1406 1406 1404 1403 1402 1401 1400 1399
1443 1442 1441 1441 1440 1439 1438 1437 1437 1436 1435 1435 1434 1433 1432 1432 1431 1430 1428 1428 1427 1426 1425 1424 1422 1420 1418 1417 1416 1413 1411 1409 1407 1405 1403 1399 1399 1397 1397 1396 1395 1393 1392
1442 1441 1440 1439 1438 1436 1436 1435 1434 1433 1432 1431 1430 1429 1428 1427 1426 1425 1424 1422 1422 1421 1419 1418 1417 1415 1413 1412 1410 1409 1406 1403 1401 1400 1398 1395 1392 1391 1390 1389 1388 1387 1386
1440 1439 1438 1437 1436 1435 1434 1432 1431 1430 1429 1428 1427 1426 1425 1423 1422 1421 1420 1418 1416 1415 1414 1413 1412 1410 1408 1407 1405 1403 1400 1398 1394 1393 1392 1390 1387 1385 1383 1381 1381 1380 1379
1439 1438 1437 1435 1434 1433 1432 1430 1429 1428 1426 1425 1424 1423 1422 1420 1419 1417 1415 1414 1412 1410 1409 1407 1406 1404 1403 1401 1400 1398 1396 1393 1390 1388 1386 1385 1382 1380 1376 1375 1375 1374 1373